Tracking 28790 objects as of 19-Apr-2024
HD Live streaming from Space Station
objects crossing your sky now

STARLINK-2002

Track STARLINK-2002 now!
10-day predictions
STARLINK-2002 is classified as:


NORAD ID: 47597
Int'l Code: 2021-009BB
Perigee: 553.2 km
Apogee: 555.6 km
Inclination: 53.1 °
Period: 95.6 minutes
Semi major axis: 6925 km
RCS: Unknown
Launch date: February 4, 2021
Source: United States (US)
Launch site: AIR FORCE EASTERN TEST RANGE (AFETR)
Your satellite tracking list
Your tracking list is empty




NASA's NSSDC Master Catalog

Two Line Element Set (TLE):
1 47597U 21009BB  24109.42111630 -.00012693  00000-0 -83502-3 0  9992
2 47597  53.0520 260.3525 0001781  83.2348 276.8843 15.06386523176479
Source of the keplerian elements: AFSPC